EST,Max TemperatureF,Mean TemperatureF,Min TemperatureF,Max Dew PointF,MeanDew PointF,Min DewpointF,Max Humidity, Mean Humidity, Min Humidity, Max Sea Level PressureIn, Mean Sea Level PressureIn, Min Sea Level PressureIn, Max VisibilityMiles, Mean VisibilityMiles, Min VisibilityMiles, Max Wind SpeedMPH, Mean Wind SpeedMPH, Max Gust SpeedMPH,PrecipitationIn, CloudCover, Events, WindDirDegrees
2012-11-1,41,39,37,41,39,36,100,99,93,29.79,29.73,29.68,10,5,3,17,13,23,0.00,8,Rain,241
2012-11-2,42,38,35,37,35,34,100,88,70,30.00,29.87,29.76,20,11,3,14,11,28,0.00,8,Rain,264
2012-11-3,42,38,35,34,33,32,87,79,70,30.12,30.09,30.05,20,14,10,12,8,,0.00,8,,289
2012-11-4,39,37,35,32,29,28,87,73,65,30.12,30.11,30.10,20,15,10,9,4,,0.00,7,,317
2012-11-5,39,37,35,32,30,27,87,74,65,30.18,30.15,30.12,15,11,10,7,3,,0.00,8,,330
2012-11-6,48,38,28,30,28,25,86,64,50,30.11,30.05,29.99,20,13,10,7,3,,0.00,0,,139
2012-11-7,39,36,32,28,27,27,87,70,61,30.04,29.98,29.94,20,14,10,9,4,,0.00,6,,48
2012-11-8,44,34,23,34,29,23,100,76,57,30.18,30.13,30.09,20,14,8,13,4,17,0.00,2,,271
2012-11-9,51,40,30,36,34,28,100,71,54,30.28,30.23,30.20,10,10,8,12,4,,0.00,0,,243
2012-11-10,64,50,37,43,38,36,100,63,34,30.30,30.26,30.21,15,12,10,13,3,21,0.00,5,,215
2012-11-11,71,54,37,43,37,34,93,46,29,30.41,30.32,30.27,15,11,10,17,3,,0.00,2,,178
2012-11-12,71,56,42,52,47,43,100,65,41,30.31,30.17,30.03,15,9,2,17,9,29,0.00,6,Rain,185
2012-11-13,37,34,32,30,28,25,93,76,65,30.52,30.46,30.39,20,15,10,12,6,,0.00,7,,250
2012-11-14,39,36,30,28,27,27,87,74,61,30.57,30.49,30.44,20,14,10,12,6,,0.00,6,,67
2012-11-15,48,38,28,30,29,25,93,70,46,30.36,30.32,30.29,20,14,9,0,0,,0.00,2,,-1
2012-11-16,48,37,26,32,30,27,100,74,46,30.48,30.41,30.36,15,12,10,6,1,,0.00,2,,-1
2012-11-17,55,40,26,32,29,27,100,60,33,30.61,30.57,30.54,15,11,10,9,3,,0.00,0,,69
2012-11-18,55,48,41,32,30,27,61,50,38,30.56,30.49,30.21,15,12,10,13,5,,0.00,0,,131
2012-11-19,53,46,37,36,35,34,87,69,50,30.43,30.34,30.25,20,14,10,7,5,,0.00,4,,108
2012-11-20,51,42,32,37,35,32,100,76,50,30.19,30.15,30.11,15,12,7,0,0,,0.00,5,,-1
2012-11-21,55,42,28,36,31,28,100,71,36,30.25,30.22,30.20,20,11,4,0,0,,0.00,0,,-1
2012-11-22,60,44,28,36,31,28,100,60,29,30.27,30.19,30.10,20,16,10,10,2,,0.00,0,,236
2012-11-23,53,44,33,48,39,25,100,76,54,29.99,29.89,29.82,20,10,2,24,12,31,0.00,7,Rain,228
2012-11-24,32,31,30,28,27,23,93,84,69,30.08,30.03,30.01,10,5,1,17,13,23,0.00,8,Snow,258
2012-11-25,37,32,26,25,22,21,80,66,52,30.05,29.97,29.88,20,14,2,21,11,18,0.00,4,Snow,231
2012-11-26,44,38,32,30,28,27,81,68,49,30.21,30.17,30.10,20,12,10,9,5,,0.00,3,,253
2012-11-27,37,34,32,36,32,30,100,91,81,30.29,30.26,30.23,10,7,2,0,0,,0.00,8,Snow,-1
2012-11-28,39,34,28,28,23,19,81,64,48,30.36,30.31,30.28,15,13,10,16,9,23,0.00,3,,244
2012-11-29,42,34,26,28,24,23,86,68,46,30.42,30.35,30.30,10,10,10,13,8,,0.00,1,,221
2012-11-30,53,42,30,32,31,27,93,64,44,30.31,30.27,30.23,10,10,10,13,3,,0.00,4,,220